STARLINK-32556, 61858

Orbit data source: Space-Track

STARLINK-32556, 61858 is a payload satellite owned by SpaceX/Seattle (US) in LEO that was launched on Thu, 07 Nov 2024 UTC via an FALCON 9 launch vehicle from the Air Force Eastern Test Range (AFETR). Payload-class satellites include a variety of spacecraft equipped with specific instruments for various scientific and technological missions. These include communications satellites like Starlink; space stations such as the ISS; scientific satellites like the Hubble; Earth observation satellites from companies like Planet Labs, Umbra, and HawkEye 360; GPS; miniature CubeSats for education and research; and military/defense satellites.

Loading next visibility...
Identifier
61858, 2024-202P
Orbit
LEO
Country
Flag of USUS
Related business
Manufacturer
SpaceX/Seattle
Mission
Operational Commercial Communications
Bus & Motor
STARLINK V2M, Unknown motor
Mass
730 kg wet, ~700 kg dry
Launch date (UTC)
2024-11-07 (1 year ago)
Launch vehicle
FALCON 9
Launch site
Air Force Eastern Test Range (AFETR)
Object type
Payload
Rocket body
Debris
Shape & HBR
Box + 2 Pan, 17.7 m
Radar Cross Section
33.884 m², Large (>1 m²)

Expand to show TLE details & history
Last TLE update: 11 hours ago

TLE from 11 hours ago
0 STARLINK-32556
1 61858U 24202P   25354.01744541  .00000587  00000-0  30878-4 0  9993
2 61858  43.0014 327.8680 0001306 263.8823  96.1879 15.27561645 63155
Epoch: 2025-12-20T00:25Z
TLE epoch observation values (Epoch: 2025-12-20T00:25:07.283Z)
Latitude
-0.00008°
Longitude
-127.26271°
Altitude
482.976 km
Speed
7.626 km/s
True Right ascension
21h 51m 28s
True Declination
0° 00' 00"
Sunlit
Object was in daylight at epoch
Visualization orbit readout
Latitude
Unknown
Longitude
Unknown
Altitude
Unknown
Speed
Unknown
Apparent Right ascension
Unknown
Apparent Declination
Unknown
Sunlit
N/A
Visualization observer readout
Local Sidereal Time
10:15:03
Azimuth
Unknown
Elevation
Unknown
Doppler factor
Unknown
Orbital elements
Apogee altitude
485.945 km
Perigee altitude
484.153 km
Semi-major axis
6,863.186 km
Eccentricity
0.00013
Inclination
43.0014°
RAAN
327.868°
Arg. of periapsis
263.8823°
True anomaly
96.20278°
Mean anomaly
96.1879°
Eccentric anomaly
96.19534°
Mean motion
3.81728 °/min
Orbital period
94.31 mins
BSTAR
0.000030878
Loading maneuver chart data...
Computing Atmospheric mass density...
Loading historical data...
Loading historical data...
Loading historical data...
Loading historical data...
Loading historical data...
Loading historical data...
Loading historical data...

Documentation

Showing up to 5 results
|